www.pogodaiklimat.ru

Погода и климат >> Архив погоды >> Россия >> Крым >> Карадаг


ПОГОДА в Карадаге

  • Прогноз погоды в Карадаге
  • Монитор погоды в Карадаге

АРХИВ ПОГОДЫ в Карадаге

Время (UTC), дата Ветер
(напр.,м/с)
 
Видим.   Явления Облачность Т
(С)
Тd
(С)
f
(%)
Тe
(С)
Тes
(С)
Комфортность P
(гПа)
Po
(гПа)
Тmin
(С)
Tmax
(С)
R
(мм)
R24
(мм)
S
(см)
03 17.03 СЗ 6-12
{17}
20 км {ливн. осадки} 9/6 300 м
[Sc Ac cuf]
+6.8 +1.3 68 +3 +3 1006.3 1001.2 +3.3 8
06 17.03 З 5
{12}
20 км {ливн. осадки} 9/5 600 м
[Sc Ac cast Ci fib]
+6.4 +0.9 68 +2 +3 1010.2 1005.1 +3.3 8
09 17.03 З 5
{10}
20 км 9/8 600 м
[Sc Ci fib]
+9.6 +0.8 54 +7 +8 1012.6 1007.5
12 17.03 СЗ 8-12
{11}
20 км 9/8 600 м
[Sc Ac cast]
+10.8 -0.4 46 +8 +8 1013.5 1008.5
15 17.03 З 5-10
{13}
20 км 6/6 600 м
[Sc]
+10.6 -1.1 44 +8 +8 1015.7 1010.7
18 17.03 С 2
{11}
50 км 8/8 600 м
[Sc]
+7.9 -0.4 56 +6 +6 1018.1 1013.0 +12.4
21 17.03 С 3 50 км 8/8 600 м
[Sc]
+6.0 +0.7 69 +3 +3 1019.1 1014.0
00 18.03 С 2 50 км 4/3 600 м
[Sc Ac lent]
+5.4 -1.3 62 +3 +3 1019.4 1014.2
03 18.03 С 2 50 км ясно +4.4 -1.6 65 +2 +2 1020.4 1015.2 +3.9
06 18.03 СЗ 2 50 км ясно +7.1 -0.1 60 +5 +9 1022.2 1017.1 +2.8
09 18.03 ЮВ 2 50 км 1/1 600 м
[Sc]
+11.3 +7.6 78 +10 +20 опасность
простуды
1023.3 1018.2
12 18.03 Ю 5 20 км 1/1 600 м
[Sc]
+11.1 +6.0 71 +8 +12 1023.2 1018.1
15 18.03 Ю 2 20 км ясно +9.8 +6.1 78 +8 +9 1023.0 1017.9
18 18.03 СВ 2 20 км 1/1
[Sc]
+6.8 +5.2 90 +4 +4 1024.4 1019.2 +12.6
21 18.03 С 2 20 км ясно +5.6 +3.9 89 +3 +3 1024.5 1019.3
00 19.03 ЮВ 1 20 км 3/3
[Sc]
+6.5 +4.7 88 +5 +5 1024.2 1019.0
03 19.03 СВ 1 20 км 5/5
[Sc]
+5.5 +4.6 94 +4 +4 1023.9 1018.7 +4.4
06 19.03 Ю 2 50 км ясно +8.9 +5.3 78 +7 +11 1024.3 1019.2 +4.4
09 19.03 СЗ 2 50 км ясно +12.1 +7.3 72 +11 +22 опасность
простуды
1023.9 1018.8
12 19.03 ЮВ 2 50 км ясно +11.0 +6.6 74 +10 +18 1023.5 1018.4
15 19.03 штиль 0 20 км ясно +10.8 +3.8 62 +10 +11 1023.1 1018.0
18 19.03 СЗ 3 20 км ясно +7.2 +0.3 62 +5 +5 1023.8 1018.6 +12.4
21 19.03 СЗ 4 20 км ясно +6.2 +1.5 72 +3 +3 1023.2 1018.0
00 20.03 С 2 20 км ясно +6.2 +3.3 82 +4 +4 1022.9 1017.7
03 20.03 СЗ 3 20 км ясно +4.9 +3.0 87 +1 +1 1022.8 1017.6 +4.2
06 20.03 С 8-12
{14}
50 км 3/3 300 м
[Sc]
+6.2 +3.9 85 +1 +1 1023.3 1018.1 +4.1
09 20.03 СВ 5-11
{12}
50 км 3/3 300 м
[Sc]
+8.2 +3.8 74 +5 +9 1023.1 1018.0
12 20.03 С 5-11
{11}
20 км ясно +9.9 +3.5 64 +7 +11 1022.9 1017.8
15 20.03 С 3
{11}
20 км ясно +9.3 +2.2 61 +7 +8 1023.5 1018.4
18 20.03 С 4 20 км ясно +8.5 -2.0 48 +6 +6 1024.9 1019.8 +11.0
21 20.03 СЗ 6 20 км ясно +10.0 -1.8 44 +7 +7 1024.5 1019.4
00 21.03 СЗ 5
{11}
20 км ясно +9.2 +3.1 66 +6 +6 1024.7 1019.6
03 21.03 С 6
{11}
20 км 3/0
[Ac cast]
+8.4 +2.2 65 +5 +5 1025.2 1020.1 +7.6
06 21.03 СЗ 7-12
{11}
20 км 9/4 300 м
[Sc Ac cast]
+7.0 +3.7 79 +2 +3 1026.3 1021.1 +6.4
09 21.03 СЗ 8-13
{14}
20 км 3/0
[Ac cast]
+9.1 +3.3 67 +5 +7 1026.8 1021.7
12 21.03 С 6-12
{14}
20 км 9/3 600 м
[Sc Ac cast Ci fib]
+10.5 +1.8 55 +8 +9 1026.9 1021.8
15 21.03 СЗ 4
{12}
50 км 9/0
[Ac cast Ci fib]
+11.4 -1.8 40 +10 +10 1026.3 1021.2
18 21.03 СЗ 2 50 км в посл. час морось {ливн. осадки} 9/0
[]
+8.6 -3.4 43 +7 +7 1027.6 1022.5 +11.7
21 21.03 СЗ 2 50 км 9/0
[Ci fib]
+7.8 -3.9 43 +6 +6 1027.7 1022.5
00 22.03 З 3 50 км 9/0
[Ac cast]
+8.5 -3.1 44 +7 +7 1027.1 1022.0
03 22.03 СЗ 3 50 км 9/0
[Ac cast Ci fib]
+7.6 -1.5 52 +5 +5 1026.6 1021.4 +6.4
06 22.03 СЗ 3 50 км 9/3 600 м
[Sc Ac lent Ci]
+8.8 +0.1 54 +7 +8 1027.3 1022.2 +6.4
09 22.03 Ю 2 50 км 9/6 600 м
[Sc Ac lent]
+10.9 +2.9 58 +10 +12 1026.3 1021.2
12 22.03 ЮВ 2 50 км 9/6 600 м
[Sc Ac lent Ci]
+10.5 +5.5 71 +9 +11 1024.7 1019.6
15 22.03 ЮВ 2 20 км 10/0
[Ac lent Ci]
+8.7 +5.2 79 +7 +7 1022.4 1017.3
18 22.03 Ю 1 20 км 9/0
[Ac lent Ci]
+8.4 +1.0 60 +8 +8 1021.3 1016.2 +11.7
21 22.03 З 6 20 км слаб. ливневой дождь 9/8 600 м
[Cb cap Ac lent]
+10.2 +4.7 69 +7 +7 1019.2 1014.1
00 23.03 СЗ 5
{11}
20 км в посл. час ливневой дождь 9/9 600 м
[Cb cap]
+6.5 +0.4 65 +3 +3 1019.6 1014.5
03 23.03 С 2 20 км {ливн. осадки} 4/4 600 м
[Cb cap]
+6.6 -1.4 57 +5 +5 1017.8 1012.7 +5.5 0.0
06 23.03 З 3 50 км {ливн. осадки} ясно +8.5 +0.3 56 +6 +10 1017.7 1012.6 +4.9 0.0
09 23.03 З 6-11
{11}
50 км 9/9 600 м
[Cu med, cong]
+8.9 -5.5 36 +6 +6 1016.5 1011.4
12 23.03 С 7-12
{14}
50 км 9/9 600 м
[Cb cap]
+6.0 -4.8 46 +2 +2 1017.2 1012.1
15 23.03 СЗ 7-12
{14}
20 км в посл. час ливневой снег 9/4 600 м
[Cb cap Ac cast]
+4.2 -4.4 54 -1 -1 1018.6 1013.4 0.0
18 23.03 СЗ 6-12
{13}
65 км в посл. час ливневой дождь 9/9 300 м
[Cb cap]
+3.2 -0.9 74 -2 -2 1019.7 1014.5 +9.8 1
21 23.03 СЗ 5-10
{13}
10 км в посл. час ливневой дождь 10/10 300 м
[Cb cap]
+4.8 -1.5 64 0 0 1020.2 1015.0
00 24.03 З 2
{10}
10 км {ливн. осадки} 10/10 600 м
[Cb cap]
+4.6 -0.8 68 +2 +2 1019.7 1014.5

 

Местоположение метеостанции Карадаг (Крым, Россия): широта 44.90 долгота 35.20 высота над уровнем моря 42 м.

В архиве по умолчанию представлена погода в Карадаге за последнюю неделю. Архивные данные за месяц целиком и за предыдущие месяцы, начиная с января 2011 года, Вы можете получить, выбрав интересующий диапазон дат из раскрывающегося списка и нажав кнопку "Ввод!".


*Определитесь, кто Вы:
робот инопланетянин человек

Внимание! Время в таблицах - всемирное. Для получения местного времени необходимо прибавить поправку, которая равна 3 ч.

Смотрите также архив погоды в соседних городах и на ближайших метеорологических станциях:

Погода в Феодосии (Крым, Россия) (20 км)
Погода в Владиславовке (Крым, Россия) (33 км)
Погода в Белогорске (Крым, Россия) (50 км)
Погода в Алуште (Крым, Россия) (68 км)
Погода на Ангарском Перевале (Крым, Россия) (69 км)
Погода в Нижнегорском (Крым, Россия) (71 км)
Погода в Мысовом (Крым, Россия) (78 км)
Погода в Симферополе город (Крым, Россия) (85 км)
Погода в Никитском саду (Крым, Россия) (86 км)
Погода в Стрелковом (Херсонская область, Украина) (88 км)

Пояснения к столбцам:

Ветер - указаны скорость ветра в м/с - средняя за 10 мин, порывы в срок и между сроками (в фигурных скобках) и направление, откуда дует ветер: С - северный, СВ - северо-восточный, В - восточный, ЮВ - юго-восточный, Ю - южный, ЮЗ - юго-западный, З - западный, СЗ - северо-западный.
Видимость - горизонтальная дальность видимости в метрах или километрах. При видимости от 1 до 10 км при отсутствии осадков обычно наблюдается дымка, при ухудшении видимости до 1 км и менее - туман. В сухую погоду видимость может ухудшаться дымом, пылью или мглою.
Явления - указаны атмосферные явления, наблюдавшиеся в срок или в последний час перед сроком; фигурными скобками обозначены явления, наблюдавшиеся между сроками (за 1-3 часа до срока); квадратными скобками обозначены град или гололедные отложения с указанием их диаметра в мм.
Облачность - указаны через наклонную черту общая и нижняя облачность в баллах и высота нижней границы облаков в метрах; квадратными скобками обозначены формы облаков: Ci - перистые, Cs - перисто-слоистые, Cc - перисто-кучевые, Ac - высококучевые, As - высокослоистые, Sc - слоисто-кучевые, Ns - слоисто-дождевые, Cu - кучевые, Cb - кучево-дождевые. Подробнее классификацию облаков см. в Атласе облаков (PDF).
T - Температура воздуха - температура, измеренная на высоте 2 м над землей.
Td - Температура точки росы - температура, при понижении до которой содержащийся в воздухе водяной пар достигнет насыщения.
f - Относительная влажность воздуха - влажноcть воздуха, измеренная на высоте 2 м над землей.
Te - Эффективная температура - температура, которую ощущает одетый по сезону человек в тени. Характеристика душности погоды. При расчете учитывается влияние влажности воздуха и скорости ветра на теплоощущения человека.
Tes - Эффективная температура на солнце - температура, которую ощущает человек, с поправкой на солнечный нагрев. Характеристика знойности погоды. Зависит от высоты солнца над горизонтом, облачности и скорости ветра. Ночью, в пасмурную погоду, а также при ветре 12 м/с и более поправка равна нулю.
P - Атмосферное давление - приведенное к уровню моря атмосферное давление.
Po - Атмосферное давление - измеренное на уровне метеостанции атмосферное давление.
Tmin - Минимальная температура - минимум температуры воздуха на высоте 2 м над землей.
Tmax - Максимальная температура - максимум температуры воздуха на высоте 2 м над землей.
R - Количество осадков - Количество выпавших осадков за период времени, мм. При наведении курсора мыши на число - период времени, за который выпало указанное количество осадков.
R24 - Количество осадков - Количество выпавших осадков за 24 часа, мм.
S - Снежный покров - Высота снежного покрова, см. При наведении курсора мыши на число - состояние снежного покрова и степень покрытия местности в баллах.